User: anonymous   Login
Location: Carrières
(48.9495°N, 2.0407°E)
Time: 16:52:46
(UTC+00:00)
Language:

deb Explorer IX - Orbit

View from above orbital plane
View from above orbital plane
View from above satellite
View from above satellite

Ground track
Ground track

The orbit data is extracted from the following two-line orbital elements,

1 00085U 61004C   24113.89668175  .00026601  00000-0  35853-2 0  9996
2 00085  38.7457 305.3710 0274865 285.6778  71.3816 14.55677092132326
Epoch (UTC): 22 April 2024 21:31:13
Eccentricity: 0.0274865
inclination: 38.7457°
perigee height: 512 km
apogee height: 902 km
right ascension of ascending node: 305.3710°
argument of perigee: 285.6778°
revolutions per day: 14.55677092
mean anomaly at epoch: 71.3816°
orbit number at epoch: 13232

The dashed part of the orbit path shows where the satellite is in the earth's shadow,  

DLR